Location: Orange Harbor Mobile Home Park
(26.6923°N, 81.7937°W)
Time: 07:20:18
(UTC+00:00)

USA 234 - Pass Details

Date: 19 September 2020
Orbit: 1102 x 1106 km, 123.0° (Epoch: 16 October)

Event Time Altitude Azimuth Distance (km) Brightness Sun altitude
Rises 00:01:36 0° 45° (NE) 3,919 5.8 -8.4°
Reaches altitude 10° 00:04:09 10° 49° (NE) 2,960 5.1 -9.0°
Maximum altitude 00:10:33 57° 127° (SE) 1,279 3.4 -10.4°
Drops below altitude 10° 00:16:56 10° 205° (SSW) 2,953 5.7 -11.8°
Sets 00:19:28 0° 209° (SSW) 3,910 6.4 -12.4°
